Regional Weather Roundup
Issued by NWS

Home | Current Version | Previous Version | Graphics & Text | Print | Product List | Glossary On
Versions: 1 2 3 4 5 6 7 8 9 10 11 12 13 14 15 16 17 18 19 20 21 22 23 24 25 26 27 28 29 30 31 32 33 34 35 36 37 38 39 40 41 42 43 44 45 46 47 48 49 50
000
ASUS43 KLSX 292259
RWRMO

WEATHER SUMMARY FOR MISSOURI
NATIONAL WEATHER SERVICE SPRINGFIELD MO
600 PM CDT MON MAY 29 2017

NOTE: "FAIR" INDICATES FEW OR NO CLOUDS BELOW 12,000 FEET WITH NO
       SIGNIFICANT WEATHER AND/OR OBSTRUCTIONS TO VISIBILITY.
       CURRENT SKY AND/OR WEATHER CONDITIONS ARE NOT AVAILABLE FOR
       CHILLICOTHE AND FARMINGTON.

MOZ001>031-035>038-043-044-053-054-300000-
...NORTHERN AND WESTERN MISSOURI...

CITY           SKY/WX    TMP DP  RH WIND       PRES   REMARKS
KANSAS CTY INT MOSUNNY   79  47  32 W13       29.98F
KANSAS C DTWN  SUNNY     81  45  28 NW9       29.96F
LEE`S SUMMIT   SUNNY     79  47  32 W12       29.98F
ST JOSEPH      MOSUNNY   80  43  26 NW14      29.97F
CHILLICOTHE      N/A     79  43  27 NW8G20    29.96F
KIRKSVILLE     SUNNY     77  41  27 NW15G22   29.95S

$$
MOZ066>068-077>081-088>096-101>105-300000-
...SOUTHWEST MISSOURI...

CITY           SKY/WX    TMP DP  RH WIND       PRES   REMARKS
SPRINGFIELD    SUNNY     81  54  39 NW7       29.98F
JOPLIN         CLOUDY    84  58  40 NW10      29.99S
BRANSON        MOSUNNY   81  55  41 NW7       30.01F

$$
MOZ032>034-039>042-045>050-055>058-069>072-300000-
...CENTRAL MISSOURI...

CITY           SKY/WX    TMP DP  RH WIND       PRES   REMARKS
COLUMBIA       SUNNY     80  51  36 NW13      29.96R
JEFFERSON CITY SUNNY     83  49  30 W14       29.94S
ROLLA          SUNNY     78  54  43 W12       29.96S
SEDALIA        SUNNY     81  50  33 W13       29.98S
WARRENSBURG    SUNNY     79  46  31 W10       29.97F
OSAGE BEACH    SUNNY     80  51  36 W8        29.97F

$$
MOZ051-052-059>065-300000-
...EAST CENTRAL MISSOURI...

CITY           SKY/WX    TMP DP  RH WIND       PRES   REMARKS
ST LOUIS INTL  CLOUDY    77  62  59 W8        29.91F
SPIRIT OF STL  MOSUNNY   75  64  68 W3        29.91F
ST CHARLES     CLOUDY    74  60  61 S6        29.90F

$$
MOZ072>076-082>087-097>100-106>115-300000-
...SOUTH CENTRAL AND SOUTHEAST MISSOURI...

CITY           SKY/WX    TMP DP  RH WIND       PRES   REMARKS
CAPE GIRARDEAU SUNNY     83  59  44 SW13      29.91F
FARMINGTON     SUNNY     82  56  40 W8G16     29.94S
POPLAR BLUFF   CLOUDY    83  57  41 SW9       29.93F
WEST PLAINS    SUNNY     82  56  40 W7        29.98F

$$




USA.gov is the U.S. government's official web portal to all federal, state and local government web resources and services.